Time,TemperatureF,DewpointF,PressureIn,WindDirection,WindDirectionDegrees,WindSpeedMPH,WindSpeedGustMPH,Humidity,HourlyPrecipIn,Conditions,Clouds,dailyrainin,SoftwareType,DateUTC
2013-05-10 00:05:00,57.7,54.2,29.98,East,89,0.0,0.0,88,0.00,,,0.00,Wunderground v.1.15,2013-05-10 04:05:00,
2013-05-10 00:10:00,57.6,54.1,29.98,N/A,-737280,0.0,-999.0,88,0.00,,,0.16,Wunderground v.1.15,2013-05-10 04:10:00,
2013-05-10 00:15:00,57.5,54.3,29.98,N/A,-737280,0.0,-999.0,89,0.00,,,0.16,Wunderground v.1.15,2013-05-10 04:15:00,
2013-05-10 00:20:00,57.4,54.2,29.99,N/A,-737280,0.0,-999.0,89,0.00,,,0.16,Wunderground v.1.15,2013-05-10 04:20:00,
2013-05-10 00:25:00,57.3,54.1,29.99,N/A,-737280,0.0,-999.0,89,0.00,,,0.16,Wunderground v.1.15,2013-05-10 04:25:00,
2013-05-10 00:30:00,57.2,54.3,29.99,N/A,-737280,0.0,-999.0,90,0.00,,,0.16,Wunderground v.1.15,2013-05-10 04:30:00,
2013-05-10 00:35:00,57.1,54.2,29.99,N/A,-737280,0.0,-999.0,90,0.00,,,0.16,Wunderground v.1.15,2013-05-10 04:35:00,
2013-05-10 00:40:00,57.0,54.1,29.99,N/A,-737280,0.0,-999.0,90,0.00,,,0.16,Wunderground v.1.15,2013-05-10 04:40:00,
2013-05-10 00:45:00,57.0,54.4,29.98,N/A,-737280,0.0,-999.0,91,0.00,,,0.16,Wunderground v.1.15,2013-05-10 04:45:00,
2013-05-10 00:50:00,57.0,54.4,29.98,N/A,-737280,0.0,-999.0,91,0.00,,,0.16,Wunderground v.1.15,2013-05-10 04:50:00,
2013-05-10 00:55:00,57.0,54.4,29.98,N/A,-737280,0.0,-999.0,91,0.00,,,0.16,Wunderground v.1.15,2013-05-10 04:55:00,
2013-05-10 01:00:00,56.8,54.2,29.98,N/A,-737280,0.0,-999.0,91,0.00,,,0.16,Wunderground v.1.15,2013-05-10 05:00:00,
2013-05-10 01:05:00,56.7,54.4,29.98,N/A,-737280,0.0,-999.0,92,0.00,,,0.16,Wunderground v.1.15,2013-05-10 05:05:00,
2013-05-10 01:10:00,56.7,54.4,29.99,N/A,-737280,0.0,-999.0,92,0.00,,,0.16,Wunderground v.1.15,2013-05-10 05:10:00,
2013-05-10 01:15:00,56.7,54.7,29.98,N/A,-737280,0.0,-999.0,93,0.00,,,0.16,Wunderground v.1.15,2013-05-10 05:15:00,
2013-05-10 01:20:00,56.8,54.8,29.98,N/A,-737280,0.0,-999.0,93,0.00,,,0.16,Wunderground v.1.15,2013-05-10 05:20:00,
2013-05-10 01:25:00,57.0,55.0,29.98,N/A,-737280,0.0,-999.0,93,0.00,,,0.16,Wunderground v.1.15,2013-05-10 05:25:00,
2013-05-10 01:30:00,57.2,55.2,29.98,N/A,-737280,0.0,-999.0,93,0.00,,,0.16,Wunderground v.1.15,2013-05-10 05:30:00,
2013-05-10 01:35:00,57.4,55.4,29.98,N/A,-737280,0.0,-999.0,93,0.00,,,0.16,Wunderground v.1.15,2013-05-10 05:35:00,
2013-05-10 01:40:00,57.5,55.5,29.98,N/A,-737280,0.0,-999.0,93,0.00,,,0.16,Wunderground v.1.15,2013-05-10 05:40:00,
2013-05-10 01:45:00,57.7,56.0,29.98,N/A,-737280,0.0,-999.0,94,0.00,,,0.16,Wunderground v.1.15,2013-05-10 05:45:00,
2013-05-10 01:50:00,57.9,56.2,29.97,N/A,-737280,0.0,-999.0,94,0.00,,,0.16,Wunderground v.1.15,2013-05-10 05:50:00,
2013-05-10 01:55:00,58.0,56.3,29.97,N/A,-737280,0.0,-999.0,94,0.00,,,0.16,Wunderground v.1.15,2013-05-10 05:55:00,
2013-05-10 02:00:00,58.1,56.1,29.97,N/A,-737280,0.0,-999.0,93,0.00,,,0.16,Wunderground v.1.15,2013-05-10 06:00:00,
2013-05-10 02:05:00,58.2,56.2,29.97,N/A,-737280,0.0,-999.0,93,0.00,,,0.16,Wunderground v.1.15,2013-05-10 06:05:00,
2013-05-10 02:10:00,58.2,56.2,29.97,N/A,-737280,0.0,-999.0,93,0.00,,,0.16,Wunderground v.1.15,2013-05-10 06:10:00,
2013-05-10 02:15:00,58.3,56.6,29.97,N/A,-737280,0.0,-999.0,94,0.00,,,0.16,Wunderground v.1.15,2013-05-10 06:15:00,
2013-05-10 02:20:00,58.4,56.7,29.97,N/A,-737280,0.0,-999.0,94,0.00,,,0.16,Wunderground v.1.15,2013-05-10 06:20:00,
2013-05-10 02:25:00,58.4,56.4,29.97,N/A,-737280,0.0,-999.0,93,0.00,,,0.16,Wunderground v.1.15,2013-05-10 06:25:00,
2013-05-10 02:30:00,58.4,56.4,29.97,N/A,-737280,0.0,-999.0,93,0.00,,,0.16,Wunderground v.1.15,2013-05-10 06:30:00,
2013-05-10 02:35:00,58.4,56.4,29.96,N/A,-737280,0.0,-999.0,93,0.00,,,0.16,Wunderground v.1.15,2013-05-10 06:35:00,
2013-05-10 02:40:00,58.4,56.4,29.96,N/A,-737280,0.0,-999.0,93,0.00,,,0.16,Wunderground v.1.15,2013-05-10 06:40:00,
2013-05-10 02:45:00,58.5,56.8,29.96,N/A,-737280,0.0,-999.0,94,0.00,,,0.16,Wunderground v.1.15,2013-05-10 06:45:00,
2013-05-10 02:50:00,58.6,56.9,29.95,N/A,-737280,0.0,-999.0,94,0.00,,,0.16,Wunderground v.1.15,2013-05-10 06:50:00,
2013-05-10 02:55:00,58.6,56.9,29.95,N/A,-737280,0.0,-999.0,94,0.00,,,0.16,Wunderground v.1.15,2013-05-10 06:55:00,
2013-05-10 03:00:00,58.6,56.6,29.95,N/A,-737280,0.0,-999.0,93,0.00,,,0.16,Wunderground v.1.15,2013-05-10 07:00:00,
2013-05-10 03:05:00,58.6,56.9,29.95,N/A,-737280,0.0,-999.0,94,0.00,,,0.16,Wunderground v.1.15,2013-05-10 07:05:00,
2013-05-10 03:10:00,58.6,56.6,29.95,N/A,-737280,0.0,-999.0,93,0.00,,,0.16,Wunderground v.1.15,2013-05-10 07:10:00,
2013-05-10 03:15:00,58.6,56.6,29.95,N/A,-737280,0.0,-999.0,93,0.00,,,0.16,Wunderground v.1.15,2013-05-10 07:15:00,
2013-05-10 03:20:00,58.5,56.8,29.95,N/A,-737280,0.0,-999.0,94,0.00,,,0.16,Wunderground v.1.15,2013-05-10 07:20:00,
2013-05-10 03:25:00,58.5,56.8,29.95,N/A,-737280,0.0,-999.0,94,0.00,,,0.16,Wunderground v.1.15,2013-05-10 07:25:00,
2013-05-10 03:30:00,58.5,56.8,29.95,N/A,-737280,0.0,-999.0,94,0.00,,,0.16,Wunderground v.1.15,2013-05-10 07:30:00,
2013-05-10 03:35:00,58.5,56.8,29.94,N/A,-737280,0.0,-999.0,94,0.00,,,0.16,Wunderground v.1.15,2013-05-10 07:35:00,
2013-05-10 03:40:00,58.6,56.9,29.94,N/A,-737280,0.0,-999.0,94,0.00,,,0.16,Wunderground v.1.15,2013-05-10 07:40:00,
2013-05-10 03:45:00,58.7,57.0,29.94,N/A,-737280,0.0,-999.0,94,0.00,,,0.16,Wunderground v.1.15,2013-05-10 07:45:00,
2013-05-10 03:50:00,58.7,57.0,29.94,N/A,-737280,0.0,-999.0,94,0.00,,,0.16,Wunderground v.1.15,2013-05-10 07:50:00,
2013-05-10 03:55:00,58.8,57.1,29.94,N/A,-737280,0.0,-999.0,94,0.00,,,0.16,Wunderground v.1.15,2013-05-10 07:55:00,
2013-05-10 04:00:00,58.8,57.1,29.94,N/A,-737280,0.0,-999.0,94,0.00,,,0.16,Wunderground v.1.15,2013-05-10 08:00:00,
2013-05-10 04:05:00,58.7,57.0,29.93,N/A,-737280,0.0,-999.0,94,0.00,,,0.16,Wunderground v.1.15,2013-05-10 08:05:00,
2013-05-10 04:10:00,58.7,57.0,29.93,N/A,-737280,0.0,-999.0,94,0.00,,,0.16,Wunderground v.1.15,2013-05-10 08:10:00,
2013-05-10 04:15:00,58.7,57.0,29.93,N/A,-737280,0.0,-999.0,94,0.00,,,0.16,Wunderground v.1.15,2013-05-10 08:15:00,
2013-05-10 04:20:00,58.6,56.9,29.93,N/A,-737280,0.0,-999.0,94,0.00,,,0.16,Wunderground v.1.15,2013-05-10 08:20:00,
2013-05-10 04:25:00,58.5,56.8,29.93,N/A,-737280,0.0,-999.0,94,0.00,,,0.16,Wunderground v.1.15,2013-05-10 08:25:00,
2013-05-10 04:30:00,58.2,56.5,29.93,East,89,0.0,0.0,94,0.00,,,0.00,Wunderground v.1.15,2013-05-10 08:30:00,
2013-05-10 04:35:00,58.2,56.5,29.93,East,89,0.0,0.0,94,0.00,,,0.00,Wunderground v.1.15,2013-05-10 08:35:00,
2013-05-10 04:40:00,58.2,56.5,29.93,N/A,-737280,0.0,-999.0,94,0.00,,,0.16,Wunderground v.1.15,2013-05-10 08:40:00,
2013-05-10 04:45:00,58.3,56.9,29.93,East,89,0.0,0.0,95,0.00,,,0.00,Wunderground v.1.15,2013-05-10 08:45:00,
2013-05-10 04:50:00,58.3,56.9,29.95,WSW,241,0.0,0.0,95,0.00,,,0.00,Wunderground v.1.15,2013-05-10 08:50:00,
2013-05-10 04:55:00,59.2,57.8,29.98,SSW,196,2.0,5.0,95,0.00,,,0.00,Wunderground v.1.15,2013-05-10 08:55:00,
2013-05-10 05:00:00,59.9,57.9,29.97,SSE,162,4.0,7.0,93,0.00,,,0.01,Wunderground v.1.15,2013-05-10 09:00:00,
2013-05-10 05:05:00,60.1,57.8,29.97,SSW,203,5.0,-999.0,92,0.01,,,0.16,Wunderground v.1.15,2013-05-10 09:05:00,
2013-05-10 05:10:00,60.6,58.0,29.97,SW,219,5.0,5.0,91,0.04,,,0.02,Wunderground v.1.15,2013-05-10 09:10:00,
2013-05-10 05:15:00,60.6,58.0,29.97,SSW,203,4.0,5.0,91,0.23,,,0.04,Wunderground v.1.15,2013-05-10 09:15:00,
2013-05-10 05:20:00,60.5,57.9,29.97,SSW,202,4.0,4.0,91,0.18,,,0.05,Wunderground v.1.15,2013-05-10 09:20:00,
2013-05-10 05:25:00,60.3,57.7,29.97,South,181,4.0,8.0,91,0.14,,,0.06,Wunderground v.1.15,2013-05-10 09:25:00,
2013-05-10 05:30:00,60.0,57.7,29.96,ESE,122,4.0,4.0,92,0.25,,,0.08,Wunderground v.1.15,2013-05-10 09:30:00,
2013-05-10 05:35:00,60.0,57.7,29.96,SSW,203,3.0,-999.0,92,0.09,,,0.16,Wunderground v.1.15,2013-05-10 09:35:00,
2013-05-10 05:40:00,59.7,57.7,29.96,SE,143,3.0,3.0,93,0.13,,,0.10,Wunderground v.1.15,2013-05-10 09:40:00,
2013-05-10 05:45:00,59.5,57.5,29.95,SE,129,1.0,3.0,93,0.48,,,0.14,Wunderground v.1.15,2013-05-10 09:45:00,
2013-05-10 05:50:00,59.4,57.4,29.95,SE,133,0.0,0.0,93,0.17,,,0.15,Wunderground v.1.15,2013-05-10 09:50:00,
2013-05-10 05:55:00,59.2,57.5,29.95,SE,133,0.0,0.0,94,0.07,,,0.15,Wunderground v.1.15,2013-05-10 09:55:00,
2013-05-10 06:00:00,59.1,57.4,29.94,SSW,198,0.0,0.0,94,0.05,,,0.16,Wunderground v.1.15,2013-05-10 10:00:00,
2013-05-10 06:10:00,58.9,57.5,29.94,SE,142,0.0,1.0,95,0.05,,,0.16,Wunderground v.1.15,2013-05-10 10:10:00,
2013-05-10 06:20:00,58.8,57.4,29.94,WSW,252,1.0,2.0,95,0.00,,,0.16,Wunderground v.1.15,2013-05-10 10:20:00,
2013-05-10 06:25:00,58.7,57.3,29.94,SSW,206,1.0,2.0,95,0.00,,,0.16,Wunderground v.1.15,2013-05-10 10:25:00,
2013-05-10 06:30:00,58.7,57.3,29.94,SW,224,1.0,1.0,95,0.00,,,0.16,Wunderground v.1.15,2013-05-10 10:30:00,
2013-05-10 06:35:00,58.6,57.2,29.94,SSE,160,1.0,1.0,95,0.00,,,0.16,Wunderground v.1.15,2013-05-10 10:35:00,
2013-05-10 06:40:00,58.7,57.3,29.94,South,190,1.0,1.0,95,0.00,,,0.16,Wunderground v.1.15,2013-05-10 10:40:00,
2013-05-10 06:45:00,58.7,57.3,29.94,ESE,115,1.0,1.0,95,0.00,,,0.16,Wunderground v.1.15,2013-05-10 10:45:00,
2013-05-10 06:50:00,58.8,57.4,29.93,SSE,151,0.0,1.0,95,0.00,,,0.16,Wunderground v.1.15,2013-05-10 10:50:00,
2013-05-10 07:00:00,59.0,57.9,29.94,SW,235,1.0,1.0,96,0.00,,,0.16,Wunderground v.1.15,2013-05-10 11:00:00,
2013-05-10 07:10:00,59.2,58.1,29.93,WSW,241,3.0,3.0,96,0.00,,,0.16,Wunderground v.1.15,2013-05-10 11:10:00,
2013-05-10 07:15:00,59.3,58.2,29.93,SW,217,2.0,3.0,96,0.00,,,0.16,Wunderground v.1.15,2013-05-10 11:15:00,
2013-05-10 07:20:00,59.5,58.4,29.93,SW,229,2.0,3.0,96,0.00,,,0.16,Wunderground v.1.15,2013-05-10 11:20:00,
2013-05-10 07:25:00,59.6,58.5,29.93,SSW,193,3.0,3.0,96,0.00,,,0.16,Wunderground v.1.15,2013-05-10 11:25:00,
2013-05-10 07:35:00,59.8,58.7,29.92,SSW,198,2.0,3.0,96,0.00,,,0.16,Wunderground v.1.15,2013-05-10 11:35:00,
2013-05-10 07:40:00,60.0,58.6,29.92,South,181,2.0,2.0,95,0.00,,,0.16,Wunderground v.1.15,2013-05-10 11:40:00,
2013-05-10 07:45:00,60.0,58.6,29.93,South,190,2.0,2.0,95,0.00,,,0.16,Wunderground v.1.15,2013-05-10 11:45:00,
2013-05-10 07:50:00,60.2,58.8,29.93,SSE,155,2.0,4.0,95,0.00,,,0.16,Wunderground v.1.15,2013-05-10 11:50:00,
2013-05-10 07:55:00,60.4,59.0,29.93,SSE,167,3.0,4.0,95,0.00,,,0.16,Wunderground v.1.15,2013-05-10 11:55:00,
2013-05-10 08:00:00,60.5,59.1,29.93,South,191,4.0,6.0,95,0.00,,,0.16,Wunderground v.1.15,2013-05-10 12:00:00,
2013-05-10 08:10:00,60.9,59.2,29.93,SSW,203,5.0,6.0,94,0.00,,,0.16,Wunderground v.1.15,2013-05-10 12:10:00,
2013-05-10 08:15:00,61.2,59.5,29.93,SE,140,5.0,6.0,94,0.00,,,0.16,Wunderground v.1.15,2013-05-10 12:15:00,
2013-05-10 08:20:00,61.4,59.7,29.93,SSE,149,5.0,5.0,94,0.00,,,0.16,Wunderground v.1.15,2013-05-10 12:20:00,
2013-05-10 08:25:00,61.7,59.7,29.93,SSW,197,5.0,5.0,93,0.00,,,0.16,Wunderground v.1.15,2013-05-10 12:25:00,
2013-05-10 08:30:00,62.0,60.0,29.93,South,188,5.0,5.0,93,0.00,,,0.16,Wunderground v.1.15,2013-05-10 12:30:00,
2013-05-10 08:35:00,62.5,60.1,29.93,SW,233,6.0,6.0,92,0.00,,,0.16,Wunderground v.1.15,2013-05-10 12:35:00,
2013-05-10 08:40:00,62.9,60.2,29.93,SSW,202,5.0,5.0,91,0.00,,,0.16,Wunderground v.1.15,2013-05-10 12:40:00,
2013-05-10 08:50:00,63.4,60.7,29.92,SSE,158,6.0,6.0,91,0.00,,,0.16,Wunderground v.1.15,2013-05-10 12:50:00,
2013-05-10 08:55:00,63.7,61.0,29.93,ESE,108,5.0,6.0,91,0.00,,,0.16,Wunderground v.1.15,2013-05-10 12:55:00,
2013-05-10 09:00:00,64.1,61.1,29.92,SW,217,5.0,6.0,90,0.00,,,0.16,Wunderground v.1.15,2013-05-10 13:00:00,
2013-05-10 09:05:00,64.2,60.9,29.92,SSW,203,5.0,-999.0,89,0.00,,,0.39,Wunderground v.1.15,2013-05-10 13:05:00,
2013-05-10 09:10:00,64.5,60.9,29.92,South,180,5.0,-999.0,88,0.00,,,0.39,Wunderground v.1.15,2013-05-10 13:10:00,
2013-05-10 09:15:00,64.7,61.1,29.92,SSE,158,5.0,-999.0,88,0.00,,,0.39,Wunderground v.1.15,2013-05-10 13:15:00,
2013-05-10 09:20:00,64.9,61.6,29.92,SSW,203,4.0,-999.0,89,0.00,,,0.39,Wunderground v.1.15,2013-05-10 13:20:00,
2013-05-10 09:25:00,65.2,61.6,29.92,South,180,5.0,-999.0,88,0.00,,,0.39,Wunderground v.1.15,2013-05-10 13:25:00,
2013-05-10 09:30:00,65.3,61.7,29.92,SSW,203,5.0,-999.0,88,0.00,,,0.39,Wunderground v.1.15,2013-05-10 13:30:00,
2013-05-10 09:35:00,65.5,61.5,29.92,South,180,6.0,-999.0,87,0.00,,,0.39,Wunderground v.1.15,2013-05-10 13:35:00,
2013-05-10 09:40:00,65.8,62.1,29.92,SSW,203,6.0,-999.0,88,0.00,,,0.39,Wunderground v.1.15,2013-05-10 13:40:00,
2013-05-10 09:45:00,66.2,62.2,29.92,SSE,158,5.0,-999.0,87,0.00,,,0.39,Wunderground v.1.15,2013-05-10 13:45:00,
2013-05-10 09:50:00,66.4,62.4,29.92,SSW,203,5.0,-999.0,87,0.00,,,0.39,Wunderground v.1.15,2013-05-10 13:50:00,
2013-05-10 09:55:00,66.6,62.3,29.92,SSW,203,6.0,-999.0,86,0.00,,,0.39,Wunderground v.1.15,2013-05-10 13:55:00,
2013-05-10 10:00:00,66.8,62.5,29.92,SSW,203,7.0,-999.0,86,0.00,,,0.39,Wunderground v.1.15,2013-05-10 14:00:00,
2013-05-10 10:05:00,67.1,62.4,29.92,SSW,203,8.0,-999.0,85,0.00,,,0.39,Wunderground v.1.15,2013-05-10 14:05:00,
2013-05-10 10:10:00,67.4,62.7,29.92,SW,225,6.0,-999.0,85,0.00,,,0.39,Wunderground v.1.15,2013-05-10 14:10:00,
2013-05-10 10:15:00,67.8,62.8,29.92,SSW,203,8.0,-999.0,84,0.00,,,0.39,Wunderground v.1.15,2013-05-10 14:15:00,
2013-05-10 10:20:00,68.2,63.2,29.91,SSW,203,7.0,-999.0,84,0.00,,,0.39,Wunderground v.1.15,2013-05-10 14:20:00,
2013-05-10 10:25:00,68.4,62.7,29.91,SSW,203,10.0,-999.0,82,0.00,,,0.39,Wunderground v.1.15,2013-05-10 14:25:00,
2013-05-10 10:30:00,68.4,63.0,29.91,SSW,203,10.0,-999.0,83,0.00,,,0.39,Wunderground v.1.15,2013-05-10 14:30:00,
2013-05-10 10:35:00,68.6,62.9,29.91,SSW,203,10.0,-999.0,82,0.00,,,0.39,Wunderground v.1.15,2013-05-10 14:35:00,
2013-05-10 10:40:00,68.7,63.0,29.91,SW,225,7.0,-999.0,82,0.00,,,0.39,Wunderground v.1.15,2013-05-10 14:40:00,
2013-05-10 10:45:00,68.9,63.2,29.91,SW,225,7.0,-999.0,82,0.00,,,0.39,Wunderground v.1.15,2013-05-10 14:45:00,
2013-05-10 10:50:00,69.2,63.1,29.90,SSW,203,10.0,-999.0,81,0.00,,,0.39,Wunderground v.1.15,2013-05-10 14:50:00,
2013-05-10 10:55:00,69.3,63.2,29.90,SSW,203,10.0,-999.0,81,0.00,,,0.39,Wunderground v.1.15,2013-05-10 14:55:00,
2013-05-10 11:00:00,69.3,62.9,29.90,SW,225,9.0,-999.0,80,0.00,,,0.39,Wunderground v.1.15,2013-05-10 15:00:00,
2013-05-10 11:05:00,69.3,63.6,29.90,SW,225,7.0,-999.0,82,0.00,,,0.39,Wunderground v.1.15,2013-05-10 15:05:00,
2013-05-10 11:10:00,69.7,64.0,29.90,SSW,203,8.0,-999.0,82,0.00,,,0.39,Wunderground v.1.15,2013-05-10 15:10:00,
2013-05-10 11:15:00,70.2,64.4,29.90,SSW,203,8.0,-999.0,82,0.00,,,0.39,Wunderground v.1.15,2013-05-10 15:15:00,
2013-05-10 11:20:00,70.4,64.3,29.90,SSW,203,9.0,-999.0,81,0.00,,,0.39,Wunderground v.1.15,2013-05-10 15:20:00,
2013-05-10 11:25:00,70.6,64.1,29.90,SSW,203,8.0,-999.0,80,0.00,,,0.39,Wunderground v.1.15,2013-05-10 15:25:00,
2013-05-10 11:30:00,70.6,63.8,29.90,South,180,10.0,-999.0,79,0.00,,,0.39,Wunderground v.1.15,2013-05-10 15:30:00,
2013-05-10 11:35:00,70.7,64.9,29.89,SSW,203,7.0,-999.0,82,0.00,,,0.39,Wunderground v.1.15,2013-05-10 15:35:00,
2013-05-10 11:40:00,71.0,63.8,29.90,SSW,203,9.0,-999.0,78,0.00,,,0.39,Wunderground v.1.15,2013-05-10 15:40:00,
2013-05-10 11:45:00,71.0,63.8,29.90,SSW,203,10.0,-999.0,78,0.00,,,0.39,Wunderground v.1.15,2013-05-10 15:45:00,
2013-05-10 11:50:00,71.1,64.3,29.90,SSW,203,9.0,-999.0,79,0.00,,,0.39,Wunderground v.1.15,2013-05-10 15:50:00,
2013-05-10 11:55:00,71.2,64.0,29.90,SSW,203,11.0,-999.0,78,0.00,,,0.39,Wunderground v.1.15,2013-05-10 15:55:00,
2013-05-10 12:00:00,71.4,64.9,29.90,SSW,203,9.0,-999.0,80,0.00,,,0.39,Wunderground v.1.15,2013-05-10 16:00:00,
2013-05-10 12:05:00,71.7,64.5,29.90,SSW,203,9.0,-999.0,78,0.00,,,0.39,Wunderground v.1.15,2013-05-10 16:05:00,
2013-05-10 12:10:00,71.9,65.0,29.90,SSW,203,10.0,-999.0,79,0.00,,,0.39,Wunderground v.1.15,2013-05-10 16:10:00,
2013-05-10 12:15:00,72.1,64.9,29.90,SW,225,7.0,-999.0,78,0.00,,,0.39,Wunderground v.1.15,2013-05-10 16:15:00,
2013-05-10 12:20:00,72.3,64.7,29.89,SSW,203,8.0,-999.0,77,0.00,,,0.39,Wunderground v.1.15,2013-05-10 16:20:00,
2013-05-10 12:25:00,72.5,65.2,29.90,SSW,203,8.0,-999.0,78,0.00,,,0.39,Wunderground v.1.15,2013-05-10 16:25:00,
2013-05-10 12:30:00,72.6,64.6,29.89,SSW,203,11.0,-999.0,76,0.00,,,0.39,Wunderground v.1.15,2013-05-10 16:30:00,
2013-05-10 12:35:00,72.4,64.8,29.89,SSW,203,8.0,-999.0,77,0.00,,,0.39,Wunderground v.1.15,2013-05-10 16:35:00,
2013-05-10 12:40:00,72.5,65.2,29.89,SSW,203,9.0,-999.0,78,0.00,,,0.39,Wunderground v.1.15,2013-05-10 16:40:00,
2013-05-10 12:45:00,72.6,65.3,29.89,SSW,203,9.0,-999.0,78,0.00,,,0.39,Wunderground v.1.15,2013-05-10 16:45:00,
2013-05-10 12:50:00,72.7,64.3,29.89,SSW,203,9.0,-999.0,75,0.00,,,0.39,Wunderground v.1.15,2013-05-10 16:50:00,
2013-05-10 12:55:00,72.7,64.3,29.89,SSW,203,8.0,-999.0,75,0.00,,,0.39,Wunderground v.1.15,2013-05-10 16:55:00,
2013-05-10 13:00:00,72.8,64.8,29.89,SSW,203,10.0,-999.0,76,0.00,,,0.39,Wunderground v.1.15,2013-05-10 17:00:00,
2013-05-10 13:05:00,72.8,64.8,29.88,SSW,203,10.0,-999.0,76,0.00,,,0.39,Wunderground v.1.15,2013-05-10 17:05:00,
2013-05-10 13:10:00,72.8,64.8,29.88,South,172,10.0,10.0,76,0.00,,,0.16,Wunderground v.1.15,2013-05-10 17:10:00,
2013-05-10 13:15:00,72.7,64.7,29.88,SSW,203,9.0,-999.0,76,0.00,,,0.39,Wunderground v.1.15,2013-05-10 17:15:00,
2013-05-10 13:20:00,72.8,65.2,29.88,SSW,203,8.0,15.0,77,0.00,,,0.16,Wunderground v.1.15,2013-05-10 17:20:00,
2013-05-10 13:25:00,72.8,64.4,29.88,SW,228,9.0,15.0,75,0.00,,,0.16,Wunderground v.1.15,2013-05-10 17:25:00,
2013-05-10 13:30:00,72.9,64.5,29.88,SW,225,10.0,14.0,75,0.00,,,0.16,Wunderground v.1.15,2013-05-10 17:30:00,
2013-05-10 13:35:00,73.1,65.1,29.88,SSW,197,10.0,14.0,76,0.00,,,0.16,Wunderground v.1.15,2013-05-10 17:35:00,
2013-05-10 13:40:00,73.1,65.1,29.87,South,180,11.0,-999.0,76,0.00,,,0.39,Wunderground v.1.15,2013-05-10 17:40:00,
2013-05-10 13:45:00,73.3,65.3,29.87,SW,217,11.0,13.0,76,0.00,,,0.16,Wunderground v.1.15,2013-05-10 17:45:00,
2013-05-10 13:50:00,73.2,65.2,29.87,SSW,194,10.0,11.0,76,0.00,,,0.16,Wunderground v.1.15,2013-05-10 17:50:00,
2013-05-10 13:55:00,73.3,64.9,29.87,SSW,207,10.0,11.0,75,0.00,,,0.16,Wunderground v.1.15,2013-05-10 17:55:00,
2013-05-10 14:00:00,73.4,65.4,29.87,SSW,193,10.0,14.0,76,0.00,,,0.16,Wunderground v.1.15,2013-05-10 18:00:00,
2013-05-10 14:05:00,73.4,65.4,29.86,SSW,203,10.0,-999.0,76,0.00,,,0.39,Wunderground v.1.15,2013-05-10 18:05:00,
2013-05-10 14:10:00,73.5,64.7,29.86,South,188,10.0,16.0,74,0.00,,,0.16,Wunderground v.1.15,2013-05-10 18:10:00,
2013-05-10 14:15:00,73.7,65.3,29.86,SSW,204,11.0,16.0,75,0.00,,,0.16,Wunderground v.1.15,2013-05-10 18:15:00,
2013-05-10 14:20:00,73.9,65.1,29.85,SSW,200,10.0,11.0,74,0.00,,,0.16,Wunderground v.1.15,2013-05-10 18:20:00,
2013-05-10 14:25:00,74.1,65.7,29.85,SW,221,9.0,11.0,75,0.00,,,0.16,Wunderground v.1.15,2013-05-10 18:25:00,
2013-05-10 14:30:00,74.0,64.8,29.85,SW,226,9.0,11.0,73,0.00,,,0.16,Wunderground v.1.15,2013-05-10 18:30:00,
2013-05-10 14:35:00,73.8,64.6,29.85,SSW,210,10.0,11.0,73,0.00,,,0.16,Wunderground v.1.15,2013-05-10 18:35:00,
2013-05-10 14:40:00,73.9,65.1,29.84,SSE,155,9.0,16.0,74,0.00,,,0.16,Wunderground v.1.15,2013-05-10 18:40:00,
2013-05-10 14:45:00,73.9,65.1,29.84,SW,219,9.0,16.0,74,0.00,,,0.16,Wunderground v.1.15,2013-05-10 18:45:00,
2013-05-10 14:50:00,73.9,65.1,29.84,SSW,203,9.0,-999.0,74,0.00,,,0.39,Wunderground v.1.15,2013-05-10 18:50:00,
2013-05-10 14:55:00,73.9,64.7,29.84,South,184,9.0,11.0,73,0.00,,,0.16,Wunderground v.1.15,2013-05-10 18:55:00,
2013-05-10 15:00:00,73.9,65.1,29.84,SSW,203,8.0,-999.0,74,0.00,,,0.39,Wunderground v.1.15,2013-05-10 19:00:00,
2013-05-10 15:05:00,73.6,64.8,29.83,SSW,198,8.0,9.0,74,0.00,,,0.16,Wunderground v.1.15,2013-05-10 19:05:00,
2013-05-10 15:10:00,73.5,64.7,29.83,SSW,207,10.0,10.0,74,0.00,,,0.16,Wunderground v.1.15,2013-05-10 19:10:00,
2013-05-10 15:15:00,73.5,64.7,29.83,SSW,203,10.0,-999.0,74,0.00,,,0.39,Wunderground v.1.15,2013-05-10 19:15:00,
2013-05-10 15:20:00,73.3,64.5,29.83,WSW,250,8.0,8.0,74,0.00,,,0.16,Wunderground v.1.15,2013-05-10 19:20:00,
2013-05-10 15:25:00,73.3,64.9,29.83,SW,225,6.0,-999.0,75,0.00,,,0.39,Wunderground v.1.15,2013-05-10 19:25:00,
2013-05-10 15:30:00,73.2,64.8,29.83,SSW,205,6.0,7.0,75,0.00,,,0.16,Wunderground v.1.15,2013-05-10 19:30:00,
2013-05-10 15:35:00,73.1,64.3,29.83,SW,223,6.0,7.0,74,0.00,,,0.16,Wunderground v.1.15,2013-05-10 19:35:00,
2013-05-10 15:40:00,73.0,64.2,29.82,SW,233,7.0,7.0,74,0.00,,,0.16,Wunderground v.1.15,2013-05-10 19:40:00,
2013-05-10 15:45:00,72.8,64.0,29.83,SW,221,7.0,9.0,74,0.00,,,0.16,Wunderground v.1.15,2013-05-10 19:45:00,
2013-05-10 15:50:00,71.2,61.7,29.83,South,191,10.0,12.0,72,0.00,,,0.16,Wunderground v.1.15,2013-05-10 19:50:00,
2013-05-10 15:55:00,69.9,62.0,29.83,SSW,198,11.0,12.0,76,0.00,,,0.16,Wunderground v.1.15,2013-05-10 19:55:00,
2013-05-10 16:00:00,69.1,61.6,29.84,SSW,201,9.0,10.0,77,0.00,,,0.16,Wunderground v.1.15,2013-05-10 20:00:00,
2013-05-10 16:05:00,68.9,61.8,29.86,SSW,203,14.0,-999.0,78,0.01,,,0.39,Wunderground v.1.15,2013-05-10 20:05:00,
2013-05-10 16:10:00,64.7,60.1,29.87,South,174,13.0,13.0,85,0.51,,,0.30,Wunderground v.1.15,2013-05-10 20:10:00,
2013-05-10 16:15:00,62.3,59.0,29.86,SW,215,10.0,13.0,89,0.13,,,0.31,Wunderground v.1.15,2013-05-10 20:15:00,
2013-05-10 16:20:00,61.4,58.7,29.86,WSW,249,7.0,7.0,91,0.08,,,0.32,Wunderground v.1.15,2013-05-10 20:20:00,
2013-05-10 16:25:00,61.0,59.0,29.86,South,177,5.0,7.0,93,0.12,,,0.33,Wunderground v.1.15,2013-05-10 20:25:00,
2013-05-10 16:30:00,60.8,58.8,29.86,SW,226,4.0,5.0,93,0.25,,,0.35,Wunderground v.1.15,2013-05-10 20:30:00,
2013-05-10 16:35:00,60.8,59.1,29.86,SW,225,4.0,-999.0,94,0.21,,,0.39,Wunderground v.1.15,2013-05-10 20:35:00,
2013-05-10 16:40:00,60.8,59.4,29.86,SW,231,4.0,6.0,95,0.14,,,0.38,Wunderground v.1.15,2013-05-10 20:40:00,
2013-05-10 16:45:00,60.9,59.5,29.86,SW,215,4.0,6.0,95,0.11,,,0.39,Wunderground v.1.15,2013-05-10 20:45:00,
2013-05-10 16:50:00,61.0,59.6,29.86,South,191,4.0,4.0,95,0.08,,,0.39,Wunderground v.1.15,2013-05-10 20:50:00,
2013-05-10 16:55:00,61.2,59.8,29.86,SW,221,4.0,4.0,95,0.05,,,0.39,Wunderground v.1.15,2013-05-10 20:55:00,
2013-05-10 17:00:00,61.4,60.0,29.86,South,187,4.0,4.0,95,0.00,,,0.39,Wunderground v.1.15,2013-05-10 21:00:00,
2013-05-10 17:10:00,61.7,60.3,29.86,SSW,204,4.0,4.0,95,0.00,,,0.39,Wunderground v.1.15,2013-05-10 21:10:00,
2013-05-10 17:15:00,61.9,60.7,29.86,SSW,196,4.0,4.0,96,0.00,,,0.39,Wunderground v.1.15,2013-05-10 21:15:00,
2013-05-10 17:20:00,61.9,60.7,29.86,SSW,194,3.0,3.0,96,0.00,,,0.39,Wunderground v.1.15,2013-05-10 21:20:00,
2013-05-10 17:25:00,61.9,60.7,29.85,SW,229,3.0,3.0,96,0.00,,,0.40,Wunderground v.1.15,2013-05-10 21:25:00,
2013-05-10 17:35:00,61.9,60.7,29.85,SW,215,2.0,3.0,96,0.00,,,0.40,Wunderground v.1.15,2013-05-10 21:35:00,
2013-05-10 17:40:00,62.0,60.8,29.85,SSW,204,2.0,5.0,96,0.00,,,0.40,Wunderground v.1.15,2013-05-10 21:40:00,
2013-05-10 17:45:00,61.9,60.7,29.85,SSW,204,3.0,5.0,96,0.00,,,0.40,Wunderground v.1.15,2013-05-10 21:45:00,
2013-05-10 17:50:00,61.8,60.6,29.85,South,180,4.0,6.0,96,0.00,,,0.40,Wunderground v.1.15,2013-05-10 21:50:00,
2013-05-10 17:55:00,61.9,60.7,29.85,SSE,158,4.0,6.0,96,0.00,,,0.40,Wunderground v.1.15,2013-05-10 21:55:00,
2013-05-10 18:00:00,62.0,61.1,29.84,SSW,194,4.0,4.0,97,0.00,,,0.41,Wunderground v.1.15,2013-05-10 22:00:00,
2013-05-10 18:05:00,62.2,61.3,29.84,South,184,4.0,4.0,97,0.00,,,0.41,Wunderground v.1.15,2013-05-10 22:05:00,
2013-05-10 18:10:00,62.2,61.3,29.84,SSW,211,4.0,4.0,97,0.00,,,0.41,Wunderground v.1.15,2013-05-10 22:10:00,
2013-05-10 18:15:00,62.2,61.3,29.84,SSW,210,5.0,5.0,97,0.00,,,0.41,Wunderground v.1.15,2013-05-10 22:15:00,
2013-05-10 18:20:00,62.2,61.3,29.83,SSW,199,5.0,5.0,97,0.00,,,0.41,Wunderground v.1.15,2013-05-10 22:20:00,
2013-05-10 18:25:00,62.1,61.2,29.83,SW,219,4.0,6.0,97,0.00,,,0.42,Wunderground v.1.15,2013-05-10 22:25:00,
2013-05-10 18:30:00,62.1,61.2,29.83,SSW,199,4.0,4.0,97,0.09,,,0.43,Wunderground v.1.15,2013-05-10 22:30:00,
2013-05-10 18:35:00,62.0,61.1,29.83,SSE,166,4.0,4.0,97,0.08,,,0.43,Wunderground v.1.15,2013-05-10 22:35:00,
2013-05-10 18:40:00,62.0,61.1,29.83,SW,215,4.0,4.0,97,0.06,,,0.44,Wunderground v.1.15,2013-05-10 22:40:00,
2013-05-10 18:45:00,62.0,61.1,29.82,SSW,202,4.0,4.0,97,0.06,,,0.44,Wunderground v.1.15,2013-05-10 22:45:00,
2013-05-10 18:50:00,61.8,60.9,29.82,SSW,197,4.0,4.0,97,0.73,,,0.48,Wunderground v.1.15,2013-05-10 22:50:00,
2013-05-10 18:55:00,61.7,60.8,29.82,South,184,3.0,4.0,97,0.55,,,0.52,Wunderground v.1.15,2013-05-10 22:55:00,
2013-05-10 19:05:00,61.5,60.6,29.82,SW,217,4.0,6.0,97,0.11,,,0.53,Wunderground v.1.15,2013-05-10 23:05:00,
2013-05-10 19:10:00,61.5,60.6,29.82,South,187,5.0,5.0,97,0.06,,,0.53,Wunderground v.1.15,2013-05-10 23:10:00,
2013-05-10 19:15:00,61.6,60.7,29.82,SSW,193,5.0,5.0,97,0.04,,,0.53,Wunderground v.1.15,2013-05-10 23:15:00,
2013-05-10 19:20:00,61.6,60.7,29.82,SW,221,4.0,6.0,97,0.00,,,0.54,Wunderground v.1.15,2013-05-10 23:20:00,
2013-05-10 19:25:00,61.6,60.7,29.82,SW,231,4.0,6.0,97,0.00,,,0.54,Wunderground v.1.15,2013-05-10 23:25:00,
2013-05-10 19:35:00,61.5,60.6,29.82,SSW,205,3.0,5.0,97,0.04,,,0.55,Wunderground v.1.15,2013-05-10 23:35:00,
2013-05-10 19:40:00,61.5,60.6,29.81,SW,228,4.0,4.0,97,0.04,,,0.55,Wunderground v.1.15,2013-05-10 23:40:00,
2013-05-10 19:45:00,61.4,60.5,29.81,SW,226,3.0,4.0,97,0.04,,,0.55,Wunderground v.1.15,2013-05-10 23:45:00,
2013-05-10 19:55:00,61.4,60.5,29.81,SW,225,2.0,2.0,97,0.00,,,0.55,Wunderground v.1.15,2013-05-10 23:55:00,
2013-05-10 20:00:00,61.3,60.4,29.81,SSW,210,2.0,2.0,97,0.00,,,0.55,Wunderground v.1.15,2013-05-11 00:00:00,
2013-05-10 20:10:00,61.3,60.7,29.82,SW,225,3.0,3.0,98,0.00,,,0.55,Wunderground v.1.15,2013-05-11 00:10:00,
2013-05-10 20:15:00,61.4,60.8,29.81,SSW,207,3.0,4.0,98,0.00,,,0.55,Wunderground v.1.15,2013-05-11 00:15:00,
2013-05-10 20:20:00,61.3,60.7,29.81,SW,224,3.0,3.0,98,0.00,,,0.56,Wunderground v.1.15,2013-05-11 00:20:00,
2013-05-10 20:30:00,61.3,60.7,29.81,SW,214,3.0,3.0,98,0.00,,,0.56,Wunderground v.1.15,2013-05-11 00:30:00,
2013-05-10 20:35:00,61.3,60.7,29.81,SW,233,3.0,3.0,98,0.00,,,0.56,Wunderground v.1.15,2013-05-11 00:35:00,
2013-05-10 20:40:00,61.3,60.7,29.81,SW,231,3.0,7.0,98,0.00,,,0.56,Wunderground v.1.15,2013-05-11 00:40:00,
2013-05-10 20:45:00,61.3,60.7,29.81,SSW,211,3.0,7.0,98,0.00,,,0.56,Wunderground v.1.15,2013-05-11 00:45:00,
2013-05-10 20:50:00,61.3,60.7,29.81,South,191,4.0,4.0,98,0.00,,,0.56,Wunderground v.1.15,2013-05-11 00:50:00,
2013-05-10 20:55:00,61.3,60.7,29.81,SSW,200,3.0,4.0,98,0.00,,,0.56,Wunderground v.1.15,2013-05-11 00:55:00,
2013-05-10 21:00:00,61.3,60.7,29.81,SW,214,2.0,3.0,98,0.00,,,0.56,Wunderground v.1.15,2013-05-11 01:00:00,
2013-05-10 21:10:00,61.3,60.7,29.81,SSW,211,2.0,3.0,98,0.00,,,0.56,Wunderground v.1.15,2013-05-11 01:10:00,
2013-05-10 21:15:00,61.3,60.7,29.81,South,180,2.0,3.0,98,0.00,,,0.56,Wunderground v.1.15,2013-05-11 01:15:00,
2013-05-10 21:20:00,61.3,60.7,29.81,WSW,243,2.0,2.0,98,0.00,,,0.56,Wunderground v.1.15,2013-05-11 01:20:00,
2013-05-10 21:25:00,61.3,60.7,29.81,SSW,208,2.0,2.0,98,0.00,,,0.56,Wunderground v.1.15,2013-05-11 01:25:00,
2013-05-10 21:30:00,61.3,60.7,29.81,SW,221,3.0,5.0,98,0.00,,,0.56,Wunderground v.1.15,2013-05-11 01:30:00,
2013-05-10 21:35:00,61.3,60.7,29.81,SSW,207,4.0,5.0,98,0.00,,,0.56,Wunderground v.1.15,2013-05-11 01:35:00,
2013-05-10 21:40:00,61.3,60.7,29.81,South,187,3.0,5.0,98,0.00,,,0.56,Wunderground v.1.15,2013-05-11 01:40:00,
2013-05-10 21:45:00,61.3,60.7,29.81,SW,221,3.0,5.0,98,0.00,,,0.56,Wunderground v.1.15,2013-05-11 01:45:00,
2013-05-10 21:50:00,61.3,60.7,29.81,SW,228,2.0,3.0,98,0.00,,,0.56,Wunderground v.1.15,2013-05-11 01:50:00,
2013-05-10 22:00:00,61.3,60.7,29.81,SW,221,3.0,3.0,98,0.00,,,0.56,Wunderground v.1.15,2013-05-11 02:00:00,
2013-05-10 22:10:00,61.4,60.8,29.81,SSW,211,4.0,4.0,98,0.00,,,0.56,Wunderground v.1.15,2013-05-11 02:10:00,
2013-05-10 22:15:00,61.4,60.8,29.81,South,181,4.0,4.0,98,0.00,,,0.56,Wunderground v.1.15,2013-05-11 02:15:00,
2013-05-10 22:20:00,61.4,60.5,29.81,SW,214,3.0,3.0,97,0.00,,,0.56,Wunderground v.1.15,2013-05-11 02:20:00,
2013-05-10 22:25:00,61.4,60.5,29.81,SSW,197,4.0,5.0,97,0.00,,,0.56,Wunderground v.1.15,2013-05-11 02:25:00,
2013-05-10 22:30:00,61.4,60.5,29.81,SSW,211,4.0,6.0,97,0.00,,,0.56,Wunderground v.1.15,2013-05-11 02:30:00,
2013-05-10 22:35:00,61.4,60.5,29.81,SW,218,4.0,6.0,97,0.00,,,0.56,Wunderground v.1.15,2013-05-11 02:35:00,
2013-05-10 22:45:00,61.5,60.6,29.81,South,190,4.0,4.0,97,0.00,,,0.56,Wunderground v.1.15,2013-05-11 02:45:00,
2013-05-10 22:50:00,61.5,60.6,29.81,SSW,201,5.0,9.0,97,0.00,,,0.56,Wunderground v.1.15,2013-05-11 02:50:00,
2013-05-10 22:55:00,61.6,60.7,29.81,SSW,205,5.0,9.0,97,0.00,,,0.56,Wunderground v.1.15,2013-05-11 02:55:00,
2013-05-10 23:00:00,61.6,60.7,29.81,SSW,198,5.0,5.0,97,0.00,,,0.56,Wunderground v.1.15,2013-05-11 03:00:00,
2013-05-10 23:10:00,61.6,60.7,29.80,SSW,211,5.0,5.0,97,0.00,,,0.56,Wunderground v.1.15,2013-05-11 03:10:00,
2013-05-10 23:15:00,61.6,60.7,29.80,SSW,208,5.0,5.0,97,0.00,,,0.56,Wunderground v.1.15,2013-05-11 03:15:00,
2013-05-10 23:20:00,61.6,60.7,29.80,SW,228,5.0,7.0,97,0.00,,,0.56,Wunderground v.1.15,2013-05-11 03:20:00,
2013-05-10 23:30:00,61.6,60.7,29.80,SSW,205,5.0,5.0,97,0.00,,,0.56,Wunderground v.1.15,2013-05-11 03:30:00,
2013-05-10 23:35:00,61.6,60.7,29.80,SSW,194,4.0,5.0,97,0.00,,,0.56,Wunderground v.1.15,2013-05-11 03:35:00,
2013-05-10 23:40:00,61.6,60.7,29.80,SSW,211,5.0,5.0,97,0.00,,,0.56,Wunderground v.1.15,2013-05-11 03:40:00,
2013-05-10 23:45:00,61.6,60.7,29.80,SSW,205,4.0,5.0,97,0.00,,,0.56,Wunderground v.1.15,2013-05-11 03:45:00,
2013-05-10 23:50:00,61.6,60.7,29.80,SSW,207,4.0,6.0,97,0.00,,,0.56,Wunderground v.1.15,2013-05-11 03:50:00,
2013-05-10 23:55:00,61.6,60.7,29.80,SW,221,4.0,6.0,97,0.00,,,0.56,Wunderground v.1.15,2013-05-11 03:55:00,